UAE5QL OMDB-FSIA

Flight info

Callsign UAE5QL
Flight time 3h 53m
Altitude 36000
Route ANVIX R401 GIDIS G783 UKRAG L710 DEDSO R401 SUHIL UM314 IMTIP DCT EPNOR T144 ROUTY ROUTY1D
Aircraft B77W/H-SDE1E2E3FGHIJ2J3J4J5M1RWXY/LB1D1

Departure

Time 2026-04-26 06:49
Airport Dubai International Airport (OMDB)

Arrival

Time 2026-04-26 10:42
Airport Seychelles International Airport (FSIA)
Time Latitude Longitude Altitude Speed Heading
2026-04-26 06:04 25.24770 55.36501 76 ft 0 kts 211°
2026-04-26 06:35 25.24770 55.36502 76 ft 0 kts 211°
2026-04-26 06:36 25.24777 55.36506 76 ft 2 kts 211°
2026-04-26 06:36 25.24790 55.36515 76 ft 2 kts 211°
2026-04-26 06:36 25.24803 55.36523 76 ft 2 kts 211°
2026-04-26 06:37 25.24816 55.36532 76 ft 1 kts 211°
2026-04-26 06:37 25.24824 55.36537 76 ft 2 kts 204°
2026-04-26 06:37 25.24838 55.36541 76 ft 2 kts 175°
2026-04-26 06:37 25.24853 55.36537 76 ft 2 kts 153°
2026-04-26 06:38 25.24865 55.36528 76 ft 2 kts 130°
2026-04-26 06:38 25.24869 55.36521 76 ft 1 kts 121°
2026-04-26 06:38 25.24871 55.36519 76 ft 0 kts 121°
2026-04-26 06:40 25.24870 55.36519 76 ft 0 kts 121°
2026-04-26 06:40 25.24867 55.36525 76 ft 2 kts 121°
2026-04-26 06:41 25.24854 55.36549 76 ft 5 kts 121°
2026-04-26 06:41 25.24831 55.36592 76 ft 7 kts 121°
2026-04-26 06:41 25.24809 55.36634 76 ft 9 kts 115°
2026-04-26 06:41 25.24788 55.36713 76 ft 11 kts 102°
2026-04-26 06:42 25.24768 55.36799 76 ft 11 kts 107°
2026-04-26 06:42 25.24740 55.36869 76 ft 7 kts 121°
2026-04-26 06:42 25.24738 55.36919 76 ft 6 kts 55°
2026-04-26 06:42 25.24767 55.36955 76 ft 5 kts 63°
2026-04-26 06:43 25.24765 55.37006 76 ft 7 kts 114°
2026-04-26 06:43 25.24739 55.37054 76 ft 8 kts 121°
2026-04-26 06:43 25.24704 55.37117 76 ft 11 kts 121°
2026-04-26 06:43 25.24663 55.37192 76 ft 11 kts 121°
2026-04-26 06:44 25.24618 55.37272 76 ft 12 kts 121°
2026-04-26 06:44 25.24571 55.37356 76 ft 13 kts 122°
2026-04-26 06:44 25.24523 55.37443 76 ft 13 kts 122°
2026-04-26 06:44 25.24472 55.37535 76 ft 14 kts 122°
2026-04-26 06:45 25.24421 55.37628 76 ft 13 kts 121°
2026-04-26 06:45 25.24373 55.37715 76 ft 12 kts 122°
2026-04-26 06:45 25.24342 55.37771 76 ft 6 kts 114°
2026-04-26 06:45 25.24348 55.37822 76 ft 7 kts 55°
2026-04-26 06:46 25.24396 55.37863 76 ft 9 kts 36°
2026-04-26 06:46 25.24457 55.37909 76 ft 11 kts 34°
2026-04-26 06:46 25.24526 55.37961 76 ft 12 kts 34°
2026-04-26 06:46 25.24595 55.38012 76 ft 11 kts 34°
2026-04-26 06:47 25.24659 55.38059 76 ft 10 kts 32°
2026-04-26 06:47 25.24718 55.38099 76 ft 8 kts 32°
2026-04-26 06:47 25.24761 55.38106 76 ft 5 kts 324°
2026-04-26 06:47 25.24779 55.38077 76 ft 6 kts 301°
2026-04-26 06:48 25.24799 55.38040 76 ft 10 kts 301°
2026-04-26 06:48 25.24936 55.37792 76 ft 74 kts 302°
2026-04-26 06:48 25.25336 55.37071 76 ft 143 kts 302°
2026-04-26 06:48 25.25964 55.35941 203 ft 191 kts 301°
2026-04-26 06:49 25.26658 55.34656 833 ft 201 kts 301°
2026-04-26 06:49 25.27345 55.33397 1904 ft 186 kts 302°
2026-04-26 06:49 25.28026 55.32184 2555 ft 188 kts 302°
2026-04-26 06:49 25.28723 55.30935 3117 ft 193 kts 298°
2026-04-26 06:50 25.29119 55.29523 3742 ft 194 kts 276°
2026-04-26 06:50 25.28963 55.28043 4321 ft 200 kts 253°
2026-04-26 06:50 25.28375 55.26628 4933 ft 203 kts 247°
2026-04-26 06:50 25.27763 55.25240 5536 ft 204 kts 247°
2026-04-26 06:51 25.27152 55.23812 6144 ft 205 kts 248°
2026-04-26 06:51 25.25940 55.20956 7287 ft 209 kts 247°
2026-04-26 06:51 25.25290 55.19422 7549 ft 229 kts 246°
2026-04-26 06:52 25.24384 55.17911 7961 ft 244 kts 224°
2026-04-26 06:52 25.22907 55.16946 8591 ft 252 kts 198°
2026-04-26 06:52 25.21099 55.16750 9137 ft 265 kts 180°
2026-04-26 06:52 25.19258 55.17194 9798 ft 274 kts 155°
2026-04-26 06:53 25.17761 55.18518 10336 ft 288 kts 128°
2026-04-26 06:53 25.16720 55.20517 10708 ft 307 kts 117°
2026-04-26 06:53 25.15778 55.22650 11433 ft 310 kts 118°
2026-04-26 06:53 25.14794 55.24789 12226 ft 312 kts 119°
2026-04-26 06:54 25.13785 55.26916 13000 ft 315 kts 119°
2026-04-26 06:54 25.12755 55.29064 13751 ft 319 kts 120°
2026-04-26 06:54 25.11707 55.31244 14491 ft 324 kts 120°
2026-04-26 06:54 25.10640 55.33459 15241 ft 328 kts 120°
2026-04-26 06:55 25.09628 55.35810 15993 ft 334 kts 115°
2026-04-26 06:55 25.08694 55.38153 16740 ft 337 kts 116°
2026-04-26 06:55 25.07697 55.40618 17423 ft 343 kts 116°
2026-04-26 06:55 25.06700 55.43087 18058 ft 351 kts 115°
2026-04-26 06:56 25.05717 55.45655 18403 ft 369 kts 114°
2026-04-26 06:56 25.04695 55.48331 18693 ft 387 kts 115°
2026-04-26 06:56 25.03607 55.51162 19006 ft 404 kts 114°
2026-04-26 06:56 25.02481 55.54087 19320 ft 421 kts 115°
2026-04-26 06:57 25.01087 55.57060 19564 ft 437 kts 122°
2026-04-26 06:57 24.99513 55.59992 19962 ft 449 kts 122°
2026-04-26 06:57 24.97888 55.62997 20660 ft 454 kts 123°
2026-04-26 06:57 24.96278 55.65973 21390 ft 456 kts 123°
2026-04-26 06:58 24.94616 55.69039 21960 ft 463 kts 124°
2026-04-26 06:58 24.92771 55.72007 22457 ft 468 kts 128°
2026-04-26 06:58 24.90781 55.75012 23049 ft 473 kts 129°
2026-04-26 06:58 24.88791 55.78006 23745 ft 475 kts 129°
2026-04-26 06:59 24.86790 55.81018 24408 ft 478 kts 129°
2026-04-26 06:59 24.84801 55.84011 24987 ft 482 kts 129°
2026-04-26 06:59 24.82674 55.87077 25546 ft 484 kts 134°
2026-04-26 06:59 24.80173 55.89772 26109 ft 484 kts 144°
2026-04-26 07:00 24.77316 55.91963 26699 ft 483 kts 153°
2026-04-26 07:00 24.74172 55.93605 27319 ft 480 kts 163°
2026-04-26 07:00 24.70940 55.94634 27893 ft 479 kts 172°
2026-04-26 07:00 24.67612 55.95089 28427 ft 479 kts 181°
2026-04-26 07:01 24.64305 55.94976 28954 ft 479 kts 189°
2026-04-26 07:01 24.61023 55.94310 29459 ft 479 kts 198°
2026-04-26 07:01 24.57876 55.93113 29903 ft 479 kts 207°
2026-04-26 07:01 24.54934 55.91410 30351 ft 478 kts 216°
2026-04-26 07:02 24.52256 55.89232 30836 ft 476 kts 226°
2026-04-26 07:02 24.49933 55.86646 31343 ft 472 kts 235°
2026-04-26 07:02 24.47840 55.83877 31919 ft 471 kts 236°
2026-04-26 07:02 24.45700 55.81208 32528 ft 471 kts 234°
2026-04-26 07:03 24.43465 55.78608 33141 ft 471 kts 233°
2026-04-26 07:03 24.41148 55.76049 33709 ft 473 kts 232°
2026-04-26 07:03 24.38770 55.73524 34314 ft 473 kts 231°
2026-04-26 07:03 24.36403 55.71083 34928 ft 472 kts 230°
2026-04-26 07:04 24.33983 55.68637 35644 ft 468 kts 229°
2026-04-26 07:04 24.31591 55.66253 35959 ft 471 kts 229°
2026-04-26 07:04 24.26429 55.61722 35962 ft 479 kts 218°
2026-04-26 07:05 24.20191 55.58875 35967 ft 497 kts 202°
2026-04-26 07:05 24.13482 55.56868 35963 ft 496 kts 201°
2026-04-26 07:06 24.06804 55.54884 35959 ft 496 kts 201°
2026-04-26 07:06 24.00120 55.52895 35957 ft 498 kts 201°
2026-04-26 07:07 23.93434 55.50913 35954 ft 497 kts 201°
2026-04-26 07:07 23.86741 55.48928 35941 ft 496 kts 201°
2026-04-26 07:08 23.80063 55.46946 35937 ft 500 kts 201°
2026-04-26 07:08 23.73322 55.44947 35935 ft 496 kts 201°
2026-04-26 07:09 23.66603 55.42953 35933 ft 500 kts 201°
2026-04-26 07:09 23.59885 55.40964 35936 ft 499 kts 201°
2026-04-26 07:10 23.49476 55.39491 35927 ft 515 kts 179°
2026-04-26 07:11 23.42358 55.41077 35936 ft 524 kts 169°
2026-04-26 07:11 23.35373 55.43261 35933 ft 524 kts 167°
2026-04-26 07:12 23.28359 55.45509 35930 ft 524 kts 167°
2026-04-26 07:12 23.21346 55.47740 35925 ft 524 kts 167°
2026-04-26 07:13 23.14345 55.49957 35929 ft 525 kts 167°
2026-04-26 07:13 23.07289 55.52185 35928 ft 526 kts 167°
2026-04-26 07:14 23.00279 55.54378 35928 ft 524 kts 167°
2026-04-26 07:14 22.93255 55.56535 35927 ft 524 kts 167°
2026-04-26 07:15 22.86220 55.58692 35915 ft 525 kts 167°
2026-04-26 07:15 22.79171 55.60852 35914 ft 526 kts 167°
2026-04-26 07:16 22.72098 55.63018 35916 ft 524 kts 167°
2026-04-26 07:16 22.65012 55.65185 35916 ft 527 kts 167°
2026-04-26 07:17 22.57983 55.67336 35916 ft 523 kts 167°
2026-04-26 07:17 22.50942 55.69490 35918 ft 526 kts 167°
2026-04-26 07:18 22.43910 55.71640 35917 ft 526 kts 166°
2026-04-26 07:18 22.36828 55.73803 35915 ft 526 kts 166°
2026-04-26 07:19 22.29802 55.75946 35912 ft 525 kts 166°
2026-04-26 07:19 22.22607 55.77468 35916 ft 521 kts 177°
2026-04-26 07:20 22.15351 55.78199 35907 ft 522 kts 178°
2026-04-26 07:20 22.08116 55.78914 35896 ft 522 kts 178°
2026-04-26 07:21 22.00851 55.79634 35899 ft 522 kts 177°
2026-04-26 07:21 21.93621 55.80350 35903 ft 522 kts 178°
2026-04-26 07:22 21.86312 55.81074 35886 ft 521 kts 177°
2026-04-26 07:22 21.79060 55.81792 35894 ft 523 kts 177°
2026-04-26 07:23 21.71789 55.82512 35896 ft 522 kts 177°
2026-04-26 07:23 21.64528 55.83228 35899 ft 522 kts 177°
2026-04-26 07:24 21.57284 55.83939 35900 ft 522 kts 177°
2026-04-26 07:24 21.50047 55.84649 35907 ft 522 kts 177°
2026-04-26 07:25 21.42802 55.85358 35909 ft 523 kts 177°
2026-04-26 07:25 21.35534 55.86070 35916 ft 521 kts 177°
2026-04-26 07:26 21.28292 55.86779 35927 ft 521 kts 177°
2026-04-26 07:26 21.21006 55.87490 35927 ft 522 kts 176°
2026-04-26 07:27 21.13804 55.88191 35922 ft 522 kts 176°
2026-04-26 07:27 21.06518 55.88900 35921 ft 522 kts 176°
2026-04-26 07:28 20.99301 55.89601 35921 ft 522 kts 176°
2026-04-26 07:28 20.92055 55.90305 35926 ft 522 kts 176°
2026-04-26 07:29 20.84753 55.91014 35915 ft 522 kts 176°
2026-04-26 07:29 20.77504 55.91717 35920 ft 524 kts 176°
2026-04-26 07:30 20.70236 55.92421 35928 ft 521 kts 176°
2026-04-26 07:30 20.62972 55.93124 35928 ft 523 kts 176°
2026-04-26 07:31 20.55683 55.93829 35934 ft 523 kts 176°
2026-04-26 07:31 20.48424 55.94531 35935 ft 523 kts 176°
2026-04-26 07:32 20.41172 55.95231 35934 ft 522 kts 176°
2026-04-26 07:32 20.33923 55.95931 35935 ft 522 kts 176°
2026-04-26 07:33 20.26682 55.96625 35936 ft 521 kts 176°
2026-04-26 07:33 20.19438 55.97314 35942 ft 524 kts 176°
2026-04-26 07:34 20.12138 55.98008 35946 ft 523 kts 176°
2026-04-26 07:34 20.04879 55.98578 35950 ft 522 kts 180°
2026-04-26 07:35 19.97601 55.98714 35950 ft 522 kts 180°
2026-04-26 07:35 19.90329 55.98859 35953 ft 521 kts 180°
2026-04-26 07:36 19.83099 55.99020 35941 ft 523 kts 180°
2026-04-26 07:36 19.75826 55.99191 35945 ft 524 kts 180°
2026-04-26 07:37 19.68551 55.99366 35945 ft 523 kts 180°
2026-04-26 07:37 19.61268 55.99544 35946 ft 524 kts 180°
2026-04-26 07:38 19.53935 55.99725 35947 ft 524 kts 179°
2026-04-26 07:38 19.46628 55.99906 35949 ft 525 kts 179°
2026-04-26 07:39 19.39346 56.00087 35950 ft 523 kts 179°
2026-04-26 07:39 19.31981 56.00270 35952 ft 525 kts 179°
2026-04-26 07:40 19.24700 56.00451 35954 ft 523 kts 179°
2026-04-26 07:40 19.17424 56.00632 35956 ft 525 kts 179°
2026-04-26 07:41 19.10079 56.00814 35958 ft 523 kts 179°
2026-04-26 07:41 19.02779 56.00995 35960 ft 523 kts 179°
2026-04-26 07:42 18.95510 56.00645 35960 ft 521 kts 192°
2026-04-26 07:42 18.88411 55.98862 35961 ft 522 kts 196°
2026-04-26 07:43 18.81362 55.96976 35957 ft 522 kts 196°
2026-04-26 07:43 18.74320 55.95094 35962 ft 521 kts 196°
2026-04-26 07:44 18.67261 55.93211 35968 ft 522 kts 196°
2026-04-26 07:44 18.60243 55.91342 35969 ft 520 kts 196°
2026-04-26 07:45 18.53142 55.89452 35972 ft 522 kts 196°
2026-04-26 07:45 18.46094 55.87578 35974 ft 521 kts 196°
2026-04-26 07:46 18.39027 55.85701 35984 ft 523 kts 196°
2026-04-26 07:46 18.31960 55.83825 35989 ft 523 kts 195°
2026-04-26 07:47 18.24904 55.81954 35990 ft 523 kts 196°
2026-04-26 07:47 18.17836 55.80082 35995 ft 524 kts 196°
2026-04-26 07:48 18.10727 55.78199 35999 ft 523 kts 196°
2026-04-26 07:48 18.03666 55.76332 36000 ft 523 kts 196°
2026-04-26 07:49 17.96516 55.74699 36007 ft 525 kts 188°
2026-04-26 07:49 17.89241 55.73752 35984 ft 524 kts 188°
2026-04-26 07:50 17.78333 55.72362 35954 ft 526 kts 188°
2026-04-26 07:50 17.71075 55.71435 35942 ft 525 kts 187°
2026-04-26 07:51 17.63814 55.70508 35944 ft 526 kts 187°
2026-04-26 07:51 17.56567 55.69582 35946 ft 525 kts 187°
2026-04-26 07:52 17.49253 55.68648 35947 ft 526 kts 187°
2026-04-26 07:52 17.41990 55.67722 35950 ft 525 kts 187°
2026-04-26 07:53 17.34727 55.66795 35950 ft 527 kts 187°
2026-04-26 07:53 17.27444 55.65867 35953 ft 526 kts 187°
2026-04-26 07:54 17.20131 55.64936 35954 ft 527 kts 187°
2026-04-26 07:54 17.12833 55.64008 35955 ft 526 kts 187°
2026-04-26 07:55 17.05592 55.63087 35955 ft 525 kts 187°
2026-04-26 07:55 16.98281 55.62158 35956 ft 526 kts 187°
2026-04-26 07:56 16.91023 55.61237 35958 ft 526 kts 187°
2026-04-26 07:56 16.83750 55.60319 35941 ft 525 kts 187°
2026-04-26 07:57 16.76480 55.59410 35941 ft 525 kts 187°
2026-04-26 07:57 16.69159 55.58495 35941 ft 525 kts 187°
2026-04-26 07:58 16.61911 55.57590 35943 ft 526 kts 187°
2026-04-26 07:58 16.54646 55.56683 35940 ft 525 kts 187°
2026-04-26 07:59 16.47358 55.55773 35940 ft 527 kts 187°
2026-04-26 07:59 16.40055 55.54863 35942 ft 525 kts 187°
2026-04-26 08:00 16.32756 55.53953 35946 ft 526 kts 187°
2026-04-26 08:00 16.25510 55.53051 35948 ft 526 kts 187°
2026-04-26 08:01 16.18205 55.52142 35952 ft 526 kts 187°
2026-04-26 08:01 16.10887 55.51232 35948 ft 526 kts 187°
2026-04-26 08:02 16.03593 55.50326 35947 ft 526 kts 187°
2026-04-26 08:02 15.96298 55.49420 35947 ft 527 kts 186°
2026-04-26 08:03 15.89033 55.48519 35945 ft 525 kts 187°
2026-04-26 08:03 15.81720 55.47612 35931 ft 527 kts 187°
2026-04-26 08:04 15.74412 55.46707 35929 ft 527 kts 186°
2026-04-26 08:04 15.67135 55.45806 35929 ft 527 kts 186°
2026-04-26 08:05 15.59820 55.44902 35930 ft 526 kts 186°
2026-04-26 08:05 15.52541 55.44002 35930 ft 526 kts 187°
2026-04-26 08:06 15.45269 55.43103 35931 ft 527 kts 186°
2026-04-26 08:06 15.37953 55.42200 35936 ft 527 kts 186°
2026-04-26 08:07 15.30624 55.41297 35937 ft 527 kts 186°
2026-04-26 08:07 15.23312 55.40395 35938 ft 527 kts 186°
2026-04-26 08:08 15.16031 55.39496 35939 ft 526 kts 186°
2026-04-26 08:08 15.08752 55.38583 35946 ft 528 kts 187°
2026-04-26 08:09 15.01444 55.37667 35950 ft 527 kts 186°
2026-04-26 08:09 14.94168 55.36756 35951 ft 527 kts 186°
2026-04-26 08:10 14.86866 55.35842 35939 ft 526 kts 186°
2026-04-26 08:10 14.79589 55.34934 35939 ft 528 kts 186°
2026-04-26 08:11 14.72256 55.34018 35935 ft 527 kts 186°
2026-04-26 08:11 14.64957 55.33107 35936 ft 528 kts 186°
2026-04-26 08:12 14.57668 55.32198 35940 ft 527 kts 186°
2026-04-26 08:12 14.50328 55.31283 35943 ft 528 kts 186°
2026-04-26 08:13 14.43062 55.30378 35947 ft 526 kts 186°
2026-04-26 08:13 14.35752 55.29469 35943 ft 529 kts 186°
2026-04-26 08:14 14.28455 55.28561 35938 ft 527 kts 186°
2026-04-26 08:14 14.21160 55.27655 35939 ft 527 kts 186°
2026-04-26 08:15 14.13825 55.26743 35935 ft 527 kts 186°
2026-04-26 08:15 14.06538 55.25839 35934 ft 527 kts 185°
2026-04-26 08:16 13.99256 55.24936 35936 ft 529 kts 185°
2026-04-26 08:16 13.91921 55.24027 35938 ft 528 kts 185°
2026-04-26 08:17 13.84636 55.23114 35924 ft 525 kts 185°
2026-04-26 08:17 13.77328 55.22191 35925 ft 527 kts 185°
2026-04-26 08:18 13.70024 55.21270 35928 ft 527 kts 185°
2026-04-26 08:18 13.62728 55.20351 35926 ft 527 kts 185°
2026-04-26 08:19 13.55439 55.19433 35929 ft 526 kts 185°
2026-04-26 08:19 13.48149 55.18516 35928 ft 525 kts 185°
2026-04-26 08:20 13.40832 55.17596 35931 ft 525 kts 185°
2026-04-26 08:20 13.33557 55.16682 35931 ft 526 kts 185°
2026-04-26 08:21 13.26295 55.15771 35931 ft 526 kts 185°
2026-04-26 08:21 13.18991 55.14854 35936 ft 526 kts 185°
2026-04-26 08:22 13.11751 55.13947 35934 ft 524 kts 185°
2026-04-26 08:22 13.04441 55.13031 35934 ft 525 kts 185°
2026-04-26 08:23 12.97181 55.12121 35935 ft 523 kts 185°
2026-04-26 08:23 12.89939 55.11215 35936 ft 525 kts 185°
2026-04-26 08:24 12.82672 55.10306 35926 ft 524 kts 185°
2026-04-26 08:24 12.75390 55.09395 35924 ft 526 kts 185°
2026-04-26 08:25 12.68129 55.08488 35926 ft 525 kts 185°
2026-04-26 08:25 12.60869 55.07581 35932 ft 525 kts 185°
2026-04-26 08:26 12.53589 55.06673 35931 ft 523 kts 185°
2026-04-26 08:26 12.46323 55.05766 35929 ft 524 kts 185°
2026-04-26 08:27 12.39051 55.04859 35931 ft 523 kts 185°
2026-04-26 08:27 12.31791 55.03955 35927 ft 524 kts 185°
2026-04-26 08:28 12.24564 55.03055 35923 ft 523 kts 185°
2026-04-26 08:28 12.17324 55.02154 35916 ft 523 kts 185°
2026-04-26 08:29 12.10047 55.01249 35918 ft 524 kts 185°
2026-04-26 08:29 12.02812 55.00349 35917 ft 524 kts 185°
2026-04-26 08:30 11.95541 54.99984 35918 ft 521 kts 177°
2026-04-26 08:30 11.88249 54.99989 35906 ft 521 kts 177°
2026-04-26 08:31 11.81039 54.99994 35906 ft 520 kts 177°
2026-04-26 08:31 11.73750 54.99997 35905 ft 522 kts 177°
2026-04-26 08:32 11.66494 54.99998 35907 ft 520 kts 177°
2026-04-26 08:32 11.59182 54.99999 35908 ft 522 kts 177°
2026-04-26 08:33 11.51894 55.00000 35908 ft 522 kts 177°
2026-04-26 08:33 11.44628 55.00000 35911 ft 521 kts 177°
2026-04-26 08:34 11.37398 55.00000 35911 ft 521 kts 177°
2026-04-26 08:34 11.30085 55.00000 35911 ft 521 kts 177°
2026-04-26 08:35 11.22824 55.00000 35912 ft 521 kts 177°
2026-04-26 08:35 11.15526 55.00000 35916 ft 522 kts 177°
2026-04-26 08:36 11.08271 55.00000 35916 ft 521 kts 177°
2026-04-26 08:36 11.01010 55.00000 35915 ft 521 kts 177°
2026-04-26 08:37 10.93719 55.00000 35916 ft 521 kts 177°
2026-04-26 08:37 10.86451 55.00000 35900 ft 521 kts 177°
2026-04-26 08:38 10.79172 55.00000 35899 ft 521 kts 177°
2026-04-26 08:38 10.71878 55.00000 35901 ft 521 kts 177°
2026-04-26 08:39 10.64606 55.00000 35902 ft 521 kts 177°
2026-04-26 08:39 10.57320 55.00000 35907 ft 521 kts 177°
2026-04-26 08:40 10.50066 55.00000 35909 ft 521 kts 177°
2026-04-26 08:40 10.42778 55.00000 35914 ft 522 kts 177°
2026-04-26 08:41 10.35517 55.00000 35917 ft 522 kts 177°
2026-04-26 08:41 10.28204 55.00000 35918 ft 523 kts 177°
2026-04-26 08:42 10.20937 55.00000 35920 ft 523 kts 177°
2026-04-26 08:42 10.13656 55.00000 35915 ft 522 kts 177°
2026-04-26 08:43 10.06334 55.00000 35914 ft 522 kts 177°
2026-04-26 08:43 9.99085 55.00000 35917 ft 522 kts 177°
2026-04-26 08:44 9.91780 55.00000 35917 ft 520 kts 177°
2026-04-26 08:44 9.84541 55.00000 35905 ft 521 kts 177°
2026-04-26 08:45 9.77267 55.00000 35905 ft 521 kts 177°
2026-04-26 08:45 9.69946 55.00000 35906 ft 522 kts 177°
2026-04-26 08:46 9.62703 55.00000 35908 ft 521 kts 177°
2026-04-26 08:46 9.55427 55.00000 35909 ft 520 kts 177°
2026-04-26 08:47 9.48186 55.00000 35909 ft 521 kts 177°
2026-04-26 08:47 9.40887 55.00000 35905 ft 519 kts 177°
2026-04-26 08:48 9.33622 55.00000 35901 ft 520 kts 177°
2026-04-26 08:48 9.26389 55.00000 35897 ft 518 kts 177°
2026-04-26 08:49 9.19164 55.00000 35897 ft 519 kts 177°
2026-04-26 08:49 9.11893 55.00000 35898 ft 519 kts 177°
2026-04-26 08:50 9.04683 55.00000 35896 ft 519 kts 177°
2026-04-26 08:50 8.97439 55.00000 35898 ft 520 kts 177°
2026-04-26 08:51 8.86559 55.00000 35885 ft 518 kts 178°
2026-04-26 08:52 8.79331 55.00000 35885 ft 517 kts 178°
2026-04-26 08:52 8.72118 55.00000 35886 ft 517 kts 177°
2026-04-26 08:53 8.64919 55.00000 35887 ft 516 kts 177°
2026-04-26 08:53 8.57703 55.00000 35890 ft 517 kts 177°
2026-04-26 08:54 8.50522 55.00000 35888 ft 515 kts 178°
2026-04-26 08:54 8.43249 55.00000 35890 ft 516 kts 178°
2026-04-26 08:55 8.36072 55.00000 35890 ft 515 kts 178°
2026-04-26 08:55 8.28881 55.00000 35891 ft 513 kts 178°
2026-04-26 08:56 8.21683 55.00000 35892 ft 514 kts 178°
2026-04-26 08:56 8.14521 55.00000 35894 ft 514 kts 178°
2026-04-26 08:57 8.07353 55.00000 35893 ft 514 kts 178°
2026-04-26 08:57 8.00170 55.00000 35895 ft 514 kts 178°
2026-04-26 08:58 7.92974 55.00000 35894 ft 514 kts 178°
2026-04-26 08:58 7.85807 55.00000 35880 ft 512 kts 178°
2026-04-26 08:59 7.78678 55.00000 35882 ft 513 kts 178°
2026-04-26 08:59 7.71464 55.00000 35878 ft 513 kts 178°
2026-04-26 09:00 7.64323 55.00000 35881 ft 513 kts 178°
2026-04-26 09:00 7.57154 55.00000 35880 ft 512 kts 178°
2026-04-26 09:01 7.50007 55.00000 35877 ft 512 kts 178°
2026-04-26 09:01 7.42826 55.00000 35878 ft 511 kts 178°
2026-04-26 09:02 7.35652 55.00000 35875 ft 511 kts 179°
2026-04-26 09:02 7.28529 55.00000 35882 ft 510 kts 179°
2026-04-26 09:03 7.21408 55.00000 35890 ft 511 kts 179°
2026-04-26 09:03 7.14262 55.00000 35891 ft 510 kts 179°
2026-04-26 09:04 7.07165 55.00000 35893 ft 509 kts 179°
2026-04-26 09:04 7.00052 55.00000 35892 ft 510 kts 179°
2026-04-26 09:05 6.92926 55.00000 35895 ft 510 kts 179°
2026-04-26 09:05 6.85795 55.00000 35884 ft 508 kts 179°
2026-04-26 09:06 6.78701 55.00000 35884 ft 509 kts 179°
2026-04-26 09:06 6.71569 55.00000 35878 ft 509 kts 179°
2026-04-26 09:07 6.64495 55.00000 35867 ft 508 kts 179°
2026-04-26 09:07 6.57389 55.00000 35868 ft 507 kts 179°
2026-04-26 09:08 6.50237 55.00000 35869 ft 509 kts 179°
2026-04-26 09:08 6.43190 55.00000 35870 ft 508 kts 180°
2026-04-26 09:09 6.36053 55.00000 35868 ft 508 kts 180°
2026-04-26 09:09 6.28983 55.00000 35871 ft 506 kts 180°
2026-04-26 09:10 6.21894 55.00000 35871 ft 507 kts 180°
2026-04-26 09:10 6.14835 55.00000 35870 ft 505 kts 180°
2026-04-26 09:11 6.07761 55.00000 35875 ft 506 kts 180°
2026-04-26 09:11 6.00695 55.00000 35872 ft 506 kts 180°
2026-04-26 09:12 5.93648 55.00000 35870 ft 504 kts 180°
2026-04-26 09:12 5.86592 55.00000 35862 ft 504 kts 180°
2026-04-26 09:13 5.79570 55.00000 35873 ft 504 kts 180°
2026-04-26 09:13 5.72536 55.00000 35871 ft 501 kts 180°
2026-04-26 09:14 5.65551 55.00000 35873 ft 502 kts 180°
2026-04-26 09:14 5.58542 55.00000 35872 ft 501 kts 180°
2026-04-26 09:15 5.51546 55.00000 35876 ft 502 kts 180°
2026-04-26 09:15 5.44575 55.00000 35873 ft 498 kts 180°
2026-04-26 09:16 5.37579 55.00041 35867 ft 500 kts 177°
2026-04-26 09:16 5.30657 55.00576 35877 ft 498 kts 175°
2026-04-26 09:17 5.23721 55.01127 35881 ft 496 kts 176°
2026-04-26 09:17 5.16824 55.01655 35870 ft 496 kts 176°
2026-04-26 09:18 5.09880 55.02177 35879 ft 497 kts 176°
2026-04-26 09:18 5.02983 55.02689 35874 ft 495 kts 176°
2026-04-26 09:19 4.96067 55.03200 35873 ft 495 kts 176°
2026-04-26 09:19 4.89207 55.03704 35863 ft 495 kts 176°
2026-04-26 09:20 4.82230 55.04217 35859 ft 495 kts 176°
2026-04-26 09:20 4.75338 55.04723 35863 ft 495 kts 176°
2026-04-26 09:21 4.68401 55.05231 35862 ft 496 kts 176°
2026-04-26 09:21 4.61544 55.05734 35863 ft 494 kts 176°
2026-04-26 09:22 4.54654 55.06238 35865 ft 495 kts 176°
2026-04-26 09:22 4.47762 55.06743 35865 ft 496 kts 177°
2026-04-26 09:23 4.40852 55.07249 35868 ft 493 kts 177°
2026-04-26 09:23 4.33967 55.07753 35868 ft 494 kts 177°
2026-04-26 09:24 4.27096 55.08256 35869 ft 493 kts 177°
2026-04-26 09:24 4.20242 55.08757 35870 ft 494 kts 177°
2026-04-26 09:25 4.13361 55.09261 35870 ft 494 kts 177°
2026-04-26 09:25 4.06504 55.09762 35869 ft 492 kts 177°
2026-04-26 09:26 3.99635 55.10265 35870 ft 493 kts 177°
2026-04-26 09:26 3.92787 55.10766 35872 ft 492 kts 177°
2026-04-26 09:27 3.85891 55.11271 35868 ft 492 kts 177°
2026-04-26 09:27 3.79087 55.11769 35868 ft 492 kts 177°
2026-04-26 09:28 3.72214 55.12271 35869 ft 492 kts 177°
2026-04-26 09:28 3.65363 55.12772 35869 ft 491 kts 177°
2026-04-26 09:29 3.58531 55.13272 35868 ft 491 kts 177°
2026-04-26 09:29 3.51686 55.13773 35870 ft 492 kts 177°
2026-04-26 09:30 3.44833 55.14274 35869 ft 492 kts 177°
2026-04-26 09:30 3.37993 55.14774 35871 ft 492 kts 177°
2026-04-26 09:31 3.31123 55.15276 35869 ft 491 kts 177°
2026-04-26 09:31 3.24286 55.15775 35870 ft 491 kts 177°
2026-04-26 09:32 3.17429 55.16277 35870 ft 489 kts 177°
2026-04-26 09:32 3.10609 55.16774 35861 ft 490 kts 177°
2026-04-26 09:33 3.03812 55.17271 35852 ft 491 kts 177°
2026-04-26 09:33 2.96997 55.17769 35851 ft 491 kts 177°
2026-04-26 09:34 2.90124 55.18270 35851 ft 492 kts 177°
2026-04-26 09:34 2.83216 55.18775 35847 ft 491 kts 177°
2026-04-26 09:35 2.76395 55.19273 35847 ft 491 kts 177°
2026-04-26 09:35 2.69553 55.19773 35847 ft 492 kts 176°
2026-04-26 09:36 2.62697 55.20273 35846 ft 492 kts 176°
2026-04-26 09:36 2.55827 55.20775 35849 ft 493 kts 176°
2026-04-26 09:37 2.48947 55.21276 35848 ft 494 kts 176°
2026-04-26 09:37 2.42060 55.21779 35848 ft 494 kts 176°
2026-04-26 09:38 2.35133 55.22285 35849 ft 494 kts 176°
2026-04-26 09:38 2.28223 55.22789 35849 ft 493 kts 176°
2026-04-26 09:39 2.21370 55.23289 35849 ft 494 kts 176°
2026-04-26 09:39 2.14468 55.23792 35852 ft 494 kts 176°
2026-04-26 09:40 2.07585 55.24294 35853 ft 494 kts 176°
2026-04-26 09:40 2.00602 55.24804 35857 ft 494 kts 176°
2026-04-26 09:41 1.93721 55.25305 35854 ft 495 kts 176°
2026-04-26 09:41 1.86797 55.25810 35856 ft 495 kts 176°
2026-04-26 09:42 1.79901 55.26313 35864 ft 495 kts 176°
2026-04-26 09:42 1.73009 55.26815 35864 ft 495 kts 176°
2026-04-26 09:43 1.66135 55.27317 35862 ft 495 kts 176°
2026-04-26 09:43 1.59216 55.27821 35863 ft 495 kts 176°
2026-04-26 09:44 1.52328 55.28323 35867 ft 495 kts 176°
2026-04-26 09:44 1.45391 55.28829 35865 ft 494 kts 176°
2026-04-26 09:45 1.38464 55.29333 35866 ft 495 kts 176°
2026-04-26 09:45 1.31510 55.29793 35857 ft 494 kts 179°
2026-04-26 09:46 1.24604 55.29948 35847 ft 495 kts 179°
2026-04-26 09:46 1.17674 55.30104 35850 ft 496 kts 179°
2026-04-26 09:47 1.10734 55.30270 35850 ft 494 kts 179°
2026-04-26 09:47 1.04029 55.30436 35849 ft 495 kts 179°
2026-04-26 09:48 0.97114 55.30610 35852 ft 495 kts 179°
2026-04-26 09:48 0.90172 55.30787 35852 ft 495 kts 179°
2026-04-26 09:49 0.83198 55.30965 35846 ft 494 kts 179°
2026-04-26 09:49 0.76246 55.31143 35846 ft 495 kts 179°
2026-04-26 09:50 0.69310 55.31322 35847 ft 495 kts 179°
2026-04-26 09:50 0.62310 55.31501 35846 ft 493 kts 179°
2026-04-26 09:51 0.55354 55.31680 35847 ft 493 kts 179°
2026-04-26 09:51 0.48389 55.31860 35848 ft 493 kts 179°
2026-04-26 09:52 0.41489 55.32037 35850 ft 493 kts 179°
2026-04-26 09:52 0.31057 55.32305 35850 ft 493 kts 179°
2026-04-26 09:53 0.24157 55.32483 35853 ft 493 kts 179°
2026-04-26 09:53 0.17270 55.32660 35858 ft 492 kts 179°
2026-04-26 09:54 0.10409 55.32836 35862 ft 492 kts 179°
2026-04-26 09:54 0.03507 55.33014 35863 ft 493 kts 179°
2026-04-26 09:55 -0.03384 55.33191 35864 ft 492 kts 179°
2026-04-26 09:55 -0.10217 55.33367 35865 ft 492 kts 179°
2026-04-26 09:56 -0.17102 55.33544 35866 ft 492 kts 179°
2026-04-26 09:56 -0.23953 55.33720 35871 ft 491 kts 179°
2026-04-26 09:57 -0.30843 55.33898 35867 ft 491 kts 179°
2026-04-26 09:57 -0.37683 55.34074 35865 ft 490 kts 180°
2026-04-26 09:58 -0.44554 55.34251 35860 ft 490 kts 179°
2026-04-26 09:58 -0.51390 55.34427 35850 ft 490 kts 179°
2026-04-26 09:59 -0.57088 55.34573 35851 ft 489 kts 179°
2026-04-26 09:59 -0.65075 55.34779 35846 ft 489 kts 180°
2026-04-26 10:00 -0.71902 55.34954 35846 ft 489 kts 180°
2026-04-26 10:00 -0.78750 55.35130 35850 ft 489 kts 180°
2026-04-26 10:01 -0.85582 55.35306 35849 ft 487 kts 180°
2026-04-26 10:01 -0.92372 55.35481 35849 ft 489 kts 180°
2026-04-26 10:02 -0.99215 55.35657 35849 ft 489 kts 180°
2026-04-26 10:02 -1.06051 55.35833 35851 ft 488 kts 180°
2026-04-26 10:03 -1.12870 55.36008 35847 ft 488 kts 180°
2026-04-26 10:03 -1.19681 55.36184 35848 ft 487 kts 180°
2026-04-26 10:04 -1.26485 55.36359 35847 ft 487 kts 180°
2026-04-26 10:04 -1.33286 55.36534 35849 ft 487 kts 180°
2026-04-26 10:05 -1.40038 55.36708 35848 ft 487 kts 179°
2026-04-26 10:05 -1.46843 55.36883 35848 ft 487 kts 179°
2026-04-26 10:06 -1.53672 55.37059 35849 ft 487 kts 180°
2026-04-26 10:06 -1.60434 55.37233 35849 ft 487 kts 180°
2026-04-26 10:07 -1.67250 55.37408 35848 ft 487 kts 179°
2026-04-26 10:07 -1.74009 55.37582 35850 ft 486 kts 179°
2026-04-26 10:08 -1.80794 55.37757 35850 ft 486 kts 179°
2026-04-26 10:08 -1.87579 55.37932 35849 ft 484 kts 179°
2026-04-26 10:09 -1.93221 55.38077 35850 ft 486 kts 179°
2026-04-26 10:09 -2.01116 55.38280 35850 ft 485 kts 179°
2026-04-26 10:10 -2.07902 55.38455 35848 ft 486 kts 179°
2026-04-26 10:10 -2.14665 55.38629 35839 ft 485 kts 179°
2026-04-26 10:11 -2.21473 55.38849 35836 ft 487 kts 179°
2026-04-26 10:11 -2.28267 55.39115 35830 ft 486 kts 178°
2026-04-26 10:12 -2.35040 55.39377 35834 ft 486 kts 179°
2026-04-26 10:12 -2.41827 55.39637 35844 ft 485 kts 179°
2026-04-26 10:13 -2.48593 55.39896 35846 ft 486 kts 179°
2026-04-26 10:13 -2.55376 55.40155 35849 ft 486 kts 179°
2026-04-26 10:14 -2.62164 55.40414 35849 ft 486 kts 179°
2026-04-26 10:14 -2.68944 55.40673 35732 ft 481 kts 179°
2026-04-26 10:15 -2.72253 55.40799 34958 ft 481 kts 179°
2026-04-26 10:15 -2.75637 55.40928 34045 ft 483 kts 179°
2026-04-26 10:15 -2.79004 55.41056 33203 ft 484 kts 179°
2026-04-26 10:15 -2.82351 55.41184 32403 ft 484 kts 179°
2026-04-26 10:16 -2.85723 55.41312 31622 ft 485 kts 179°
2026-04-26 10:16 -2.89137 55.41442 30765 ft 487 kts 179°
2026-04-26 10:16 -2.92567 55.41573 30121 ft 483 kts 179°
2026-04-26 10:16 -2.95886 55.41700 29649 ft 476 kts 178°
2026-04-26 10:17 -2.99200 55.41826 29129 ft 471 kts 178°
2026-04-26 10:17 -3.02485 55.41951 28580 ft 466 kts 178°
2026-04-26 10:17 -3.05690 55.42073 28043 ft 462 kts 178°
2026-04-26 10:17 -3.08924 55.42197 27495 ft 458 kts 178°
2026-04-26 10:18 -3.12110 55.42318 26937 ft 454 kts 178°
2026-04-26 10:18 -3.15262 55.42439 26373 ft 450 kts 178°
2026-04-26 10:18 -3.18399 55.42558 25812 ft 447 kts 178°
2026-04-26 10:18 -3.21466 55.42675 25245 ft 443 kts 178°
2026-04-26 10:19 -3.24556 55.42793 24675 ft 440 kts 178°
2026-04-26 10:19 -3.27619 55.42909 24102 ft 436 kts 178°
2026-04-26 10:19 -3.30648 55.43025 23525 ft 433 kts 178°
2026-04-26 10:19 -3.33670 55.43140 22950 ft 430 kts 178°
2026-04-26 10:20 -3.36612 55.43252 22388 ft 426 kts 178°
2026-04-26 10:20 -3.38621 55.43329 22001 ft 424 kts 178°
2026-04-26 10:20 -3.42518 55.43478 21245 ft 420 kts 177°
2026-04-26 10:20 -3.45440 55.43589 20671 ft 417 kts 177°
2026-04-26 10:21 -3.48333 55.43699 20094 ft 415 kts 177°
2026-04-26 10:21 -3.51220 55.43809 19517 ft 412 kts 177°
2026-04-26 10:21 -3.54093 55.43919 18936 ft 410 kts 176°
2026-04-26 10:21 -3.56938 55.44027 18359 ft 407 kts 176°
2026-04-26 10:22 -3.59774 55.44135 17782 ft 405 kts 176°
2026-04-26 10:22 -3.62590 55.44243 17202 ft 403 kts 176°
2026-04-26 10:22 -3.65393 55.44350 16626 ft 401 kts 176°
2026-04-26 10:22 -3.68177 55.44456 16044 ft 399 kts 176°
2026-04-26 10:23 -3.70953 55.44562 15454 ft 398 kts 176°
2026-04-26 10:23 -3.73751 55.44669 14860 ft 396 kts 176°
2026-04-26 10:23 -3.76497 55.44774 14278 ft 394 kts 177°
2026-04-26 10:23 -3.79233 55.44879 13690 ft 392 kts 177°
2026-04-26 10:24 -3.81947 55.44982 13108 ft 390 kts 177°
2026-04-26 10:24 -3.84651 55.45085 12524 ft 388 kts 177°
2026-04-26 10:24 -3.87346 55.45188 11937 ft 386 kts 177°
2026-04-26 10:24 -3.90054 55.45292 11348 ft 384 kts 178°
2026-04-26 10:25 -3.92718 55.45394 10769 ft 381 kts 178°
2026-04-26 10:25 -3.95342 55.45495 10519 ft 369 kts 178°
2026-04-26 10:25 -3.97863 55.45591 10435 ft 353 kts 178°
2026-04-26 10:25 -4.00282 55.45683 10314 ft 339 kts 178°
2026-04-26 10:26 -4.02607 55.45772 10169 ft 327 kts 178°
2026-04-26 10:26 -4.04857 55.45858 10022 ft 316 kts 179°
2026-04-26 10:26 -4.07034 55.45941 9866 ft 307 kts 179°
2026-04-26 10:26 -4.09133 55.46021 9827 ft 293 kts 178°
2026-04-26 10:27 -4.11142 55.46098 9827 ft 286 kts 178°
2026-04-26 10:27 -4.13136 55.46174 9828 ft 286 kts 178°
2026-04-26 10:27 -4.15124 55.46250 9829 ft 286 kts 178°
2026-04-26 10:27 -4.17146 55.46327 9829 ft 286 kts 179°
2026-04-26 10:28 -4.19142 55.46370 9827 ft 286 kts 181°
2026-04-26 10:28 -4.21135 55.46354 9828 ft 286 kts 181°
2026-04-26 10:28 -4.23149 55.46341 9828 ft 286 kts 181°
2026-04-26 10:28 -4.25145 55.46336 9827 ft 287 kts 181°
2026-04-26 10:29 -4.27145 55.46333 9827 ft 287 kts 181°
2026-04-26 10:29 -4.29154 55.46331 9829 ft 286 kts 181°
2026-04-26 10:29 -4.31154 55.46329 9829 ft 286 kts 181°
2026-04-26 10:29 -4.33160 55.46327 9826 ft 286 kts 181°
2026-04-26 10:30 -4.35144 55.46325 9813 ft 282 kts 181°
2026-04-26 10:30 -4.37123 55.46324 9465 ft 283 kts 181°
2026-04-26 10:30 -4.39072 55.46322 9280 ft 275 kts 181°
2026-04-26 10:30 -4.40951 55.46321 9258 ft 262 kts 181°
2026-04-26 10:31 -4.42748 55.46282 9230 ft 248 kts 190°
2026-04-26 10:31 -4.44333 55.45713 8979 ft 243 kts 216°
2026-04-26 10:31 -4.45512 55.44510 8594 ft 243 kts 242°
2026-04-26 10:31 -4.46021 55.42909 8315 ft 239 kts 268°
2026-04-26 10:32 -4.45782 55.41284 8042 ft 237 kts 292°
2026-04-26 10:32 -4.44879 55.39931 7764 ft 237 kts 317°
2026-04-26 10:32 -4.43456 55.39085 7456 ft 240 kts 342°
2026-04-26 10:32 -4.41786 55.38897 7179 ft 240 kts 359°
2026-04-26 10:33 -4.40113 55.38927 6928 ft 239 kts 359°
2026-04-26 10:33 -4.38442 55.38947 6661 ft 239 kts 359°
2026-04-26 10:33 -4.36781 55.38955 6381 ft 239 kts 358°
2026-04-26 10:33 -4.35100 55.38967 6137 ft 238 kts
2026-04-26 10:34 -4.33503 55.39402 5842 ft 241 kts 28°
2026-04-26 10:34 -4.32255 55.40490 5563 ft 242 kts 55°
2026-04-26 10:34 -4.31620 55.42038 5283 ft 240 kts 85°
2026-04-26 10:34 -4.31832 55.43668 4968 ft 238 kts 116°
2026-04-26 10:35 -4.32789 55.44990 4684 ft 236 kts 137°
2026-04-26 10:35 -4.34184 55.45888 4333 ft 234 kts 163°
2026-04-26 10:35 -4.35743 55.46207 4215 ft 225 kts 176°
2026-04-26 10:35 -4.37320 55.46293 4202 ft 225 kts 180°
2026-04-26 10:36 -4.38891 55.46314 4198 ft 226 kts 181°
2026-04-26 10:36 -4.40480 55.46318 4191 ft 225 kts 181°
2026-04-26 10:36 -4.42057 55.46319 4176 ft 225 kts 181°
2026-04-26 10:36 -4.43620 55.46318 4162 ft 226 kts 181°
2026-04-26 10:37 -4.45216 55.46318 4049 ft 228 kts 181°
2026-04-26 10:37 -4.46811 55.46318 3837 ft 226 kts 181°
2026-04-26 10:37 -4.48399 55.46318 3604 ft 224 kts 181°
2026-04-26 10:37 -4.49948 55.46318 3374 ft 223 kts 181°
2026-04-26 10:38 -4.51506 55.46318 3161 ft 222 kts 181°
2026-04-26 10:38 -4.53061 55.46324 2990 ft 223 kts 181°
2026-04-26 10:38 -4.54633 55.46338 2892 ft 224 kts 180°
2026-04-26 10:38 -4.56221 55.46351 2737 ft 230 kts 181°
2026-04-26 10:39 -4.57859 55.46363 2528 ft 239 kts 181°
2026-04-26 10:39 -4.59551 55.46368 2237 ft 244 kts 181°
2026-04-26 10:39 -4.60956 55.46356 1791 ft 167 kts 180°
2026-04-26 10:39 -4.62170 55.46388 1662 ft 174 kts 176°
2026-04-26 10:40 -4.63292 55.46702 1234 ft 164 kts 153°
2026-04-26 10:40 -4.64126 55.47417 913 ft 151 kts 130°
2026-04-26 10:40 -4.64705 55.48275 749 ft 151 kts 126°
2026-04-26 10:40 -4.65302 55.49140 549 ft 150 kts 127°
2026-04-26 10:41 -4.65910 55.50009 364 ft 149 kts 126°
2026-04-26 10:41 -4.66505 55.50863 113 ft 150 kts 127°
2026-04-26 10:41 -4.67096 55.51696 21 ft 135 kts 125°
2026-04-26 10:41 -4.67513 55.52296 20 ft 70 kts 125°
2026-04-26 10:42 -4.67704 55.52570 20 ft 52 kts 125°
2026-04-26 10:42 -4.67834 55.52754 22 ft 46 kts 125°
2026-04-26 10:42 -4.68018 55.53019 30 ft 24 kts 125°
2026-04-26 10:42 -4.68094 55.53127 31 ft 0 kts 124°
2026-04-26 10:43 -4.68097 55.53132 31 ft 4 kts 126°
2026-04-26 10:43 -4.68156 55.53157 29 ft 12 kts 168°
2026-04-26 10:43 -4.68243 55.53178 25 ft 11 kts 153°
2026-04-26 10:43 -4.68252 55.53242 21 ft 12 kts 41°
2026-04-26 10:44 -4.68184 55.53249 24 ft 8 kts 320°
2026-04-26 10:44 -4.68144 55.53199 28 ft 10 kts 305°
2026-04-26 10:44 -4.68086 55.53116 31 ft 18 kts 304°
2026-04-26 10:44 -4.68012 55.53008 30 ft 18 kts 304°
2026-04-26 10:45 -4.67935 55.52899 26 ft 19 kts 304°
2026-04-26 10:45 -4.67855 55.52784 23 ft 20 kts 306°
2026-04-26 10:45 -4.67772 55.52668 21 ft 20 kts 304°
2026-04-26 10:45 -4.67694 55.52554 20 ft 19 kts 304°
2026-04-26 10:46 -4.67615 55.52443 20 ft 20 kts 305°
2026-04-26 10:46 -4.67527 55.52316 20 ft 23 kts 304°
2026-04-26 10:46 -4.67429 55.52175 21 ft 25 kts 306°
2026-04-26 10:46 -4.67321 55.52023 21 ft 28 kts 304°
2026-04-26 10:47 -4.67203 55.51854 21 ft 30 kts 305°
2026-04-26 10:47 -4.67078 55.51675 20 ft 31 kts 305°
2026-04-26 10:47 -4.66964 55.51513 20 ft 19 kts 304°
2026-04-26 10:47 -4.66908 55.51434 20 ft 10 kts 305°
2026-04-26 10:48 -4.66895 55.51393 20 ft 5 kts 245°
2026-04-26 10:48 -4.66934 55.51353 20 ft 9 kts 218°
2026-04-26 10:48 -4.66986 55.51318 21 ft 7 kts 214°
2026-04-26 10:48 -4.67007 55.51285 21 ft 5 kts 276°
2026-04-26 10:49 -4.66994 55.51259 21 ft 4 kts 304°
2026-04-26 10:49 -4.66979 55.51230 21 ft 3 kts 267°
2026-04-26 10:49 -4.66996 55.51209 21 ft 3 kts 217°
2026-04-26 10:49 -4.67015 55.51196 22 ft 2 kts 215°
2026-04-26 10:50 -4.67025 55.51189 22 ft 1 kts 215°
2026-04-26 10:50 -4.67028 55.51187 22 ft 0 kts 215°
2026-04-26 10:50 -4.67029 55.51186 22 ft 0 kts 215°